Weather in Port Said

Egypt     31°14′19″N   32°17′59″E
temp.,
°C
wind,
m/s
gust,
m/s
humid.,
%
clouds,
%
prec.,
mm/h
press.,
hPa
HPBL,
m
4 july, mon
mon423:00+27n22680 0.0 1006351
02:00+27nw22700 0.0 1006283
05:00+26nw22700 0.0 1006240
08:00+27nw32700 0.0 1007384
11:00+27n22670 0.0 1006223
14:00+28nne66640 0.0 1005238
17:00+27n78750 0.0 1005378
20:00+27n56740 0.0 1006384
5 july, tue
tue523:00+27nne22700 0.0 1006294
02:00+27wnw22700 0.0 1006353
05:00+27wnw44710 0.0 1007514
08:00+26nw33720 0.0 1008475
11:00+27nnw44690 0.0 1008342
14:00+27n66690 0.0 1007376
17:00+27nnw89740 0.0 1006475
20:00+27nnw78740 0.0 1007597
6 july, wed
wed623:00+26nw55730 0.0 1008607
02:00+26wnw55720 0.0 1007598
05:00+26wnw44720 0.0 1007664
08:00+26wnw44690 0.0 1007727
11:00+26nw55680 0.0 1008522
14:00+27nnw88700 0.0 1007503
17:00+27nnw910730 0.0 1007503
20:00+27nnw78710 0.0 1008480
7 july, thu
thu723:00+26nnw55700 0.0 1008443
02:00+26nw33690 0.0 1007460
05:00+26w33690 0.0 1007525
08:00+25w33730 0.0 1008424
11:00+27nnw33640 0.0 1008311
14:00+27n66630 0.0 1007323
17:00+27nnw77650 0.0 1007447
20:00+27nnw66640 0.0 1008459
8 july, fri
fri823:00+27nw33610 0.0 1008513
02:00+26wsw33630 0.0 1007556
05:00+25w44740 0.0 1007420
08:00+25wsw33740 0.0 1008425
11:00+26n22660 0.0 1008181
14:00+27nne55630 0.0 1006208
17:00+27n67710 0.0 1006436
20:00+27n55740 0.0 1006477